Location: Keewatin
(47.4004°N, 93.0827°W)
Time: 12:26:30
(UTC+00:00)

ZACube-1 - Pass Details

Date: 07 March 2020
Orbit: 584 x 667 km, 97.6° (Epoch: 04 April)

Event Time Altitude Azimuth Distance (km) Brightness Sun altitude
Rises 00:41:21 0° 214° (SW) 2,967 ? -6.8°
Reaches altitude 10° 00:44:33 10° 239° (WSW) 2,075 ? -7.4°
Maximum altitude 00:46:59 14° 272° (W) 1,812 ? -7.8°
Drops below altitude 10° 00:49:28 10° 305° (NW) 2,096 ? -8.2°
Sets 00:52:45 0° 330° (NNW) 3,020 ? -8.8°
